Location: Unspecified
(0.0000°N, 0.0000°E)
Time: 23:01:57
(UTC+00:00)

LT-1 O1A - Pass Details

Date: 09 September 2024
Orbit: 602 x 604 km, 97.8° (Epoch: 03 October)

Event Time Altitude Azimuth Distance (km) Brightness Sun altitude
Rises 05:25:22 0° 28° (NNE) 2,835 ? -7.9°
Reaches altitude 10° 05:27:42 10° 38° (NE) 1,936 ? -7.4°
Maximum altitude 05:31:27 32° 102° (ESE) 1,038 ? -6.4°
Drops below altitude 10° 05:35:14 10° 165° (SSE) 1,944 ? -5.5°
Sets 05:37:34 0° 175° (S) 2,849 ? -4.9°
